User: anonymous   Login
Location: Innsbruck
(47.2657°N, 11.3914°E)
Time: 05:10:56
(UTC+01:00)
Language:

FO-29 - Orbit

View from above orbital plane
View from above orbital plane
View from above satellite
View from above satellite

Ground track
Ground track

The orbit data is extracted from the following two-line orbital elements,

1 24278U 96046B   21338.88969078 -.00000010  00000-0  22799-4 0  9995
2 24278  98.5444  24.1048 0351256  68.0447 295.7633 13.53108249249296
Epoch (UTC): 04 December 2021 21:21:09
Eccentricity: 0.0351256
inclination: 98.5444°
perigee height: 799 km
apogee height: 1322 km
right ascension of ascending node: 24.1048°
argument of perigee: 68.0447°
revolutions per day: 13.53108249
mean anomaly at epoch: 295.7633°
orbit number at epoch: 24929

The dashed part of the orbit path shows where the satellite is in the earth's shadow,  

DLR